Weather in Shevyryalovo

Russia / Udmurt Republic     56°27′34″N   53°39′30″E
temp.,
°C
wind,
m/s
gust,
m/s
humid.,
%
clouds,
%
prec.,
mm/h
press.,
hPa
HPBL,
m
13 may, thu
thu1301:00+17ssw11524 0.0 102711
04:00+15ese11565 0.0 102711
07:00+18se23521 0.0 1028124
10:00+24s34411 0.0 1027792
13:00+26ssw45314 0.0 10271885
16:00+26s45315 0.0 10262139
19:00+23s22470 0.0 102528
22:00+19sse22520 0.0 102512
14 may, fri
fri1401:00+17sse22605 0.0 102514
04:00+15sse22643 0.0 102516
07:00+19s3756100 0.0 1025240
10:00+23s584561 0.1 1024528
13:00+27ssw693374 0.0 10231533
16:00+28ssw5935100 0.0 10221918
19:00+24sw355193 0.0 1021105
22:00+20ssw31158100 0.0 1021184
15 may, sat
sat1501:00+17ssw312615 0.0 1021231
04:00+16ssw376498 0.0 1022105
07:00+19sw495769 0.0 1022265
10:00+24sw574038 0.0 1021649
13:00+28sw683094 0.0 10211340
16:00+29sw583191 0.0 10201563
19:00+24sw375098 0.0 1019139
22:00+20ssw36535 0.0 101968
16 may, sun
sun1601:00+18ssw33595 0.0 101947
04:00+16ssw22595 0.0 101925
07:00+20ssw37551 0.0 1019193
10:00+26ssw58395 0.0 1019663
13:00+29sw69295 0.0 10183084
16:00+29wsw610315 0.0 10172993
19:00+25ssw4104649 0.0 1016237
22:00+20sw385668 0.0 1016116
17 may, mon
mon1701:00+18sw411615 0.0 1015197
04:00+16sw387035 0.0 1016132
07:00+20wsw366593 0.0 1017220
10:00+24w4756100 0.0 1017796
13:00+26w6104497 0.0 10161965
16:00+27w611396 0.0 10152603
19:00+23nw3854100 0.0 1016262
22:00+18nw225692 0.0 101718